• In Lithuania
  • List of Countries
  • For 7 days
  • Water Temperature
  • Satellite Maps
  • Weather Map
  • Weather Widgets
  • user-avatar
    Login

    Hourly Weather Nakhchivan

    Today, 20 January, Saturday

    Time Temperature Precipitation Wind Pressure Humidity
    00:00 +6°C° 0.1 mm 1 mps 681 mmHg 75%
    01:00 +5°C° 0.2 mm 1 mps 681 mmHg 77%
    02:00 +5°C° 0.2 mm 1 mps 681 mmHg 78%
    03:00 +6°C° 0 mm 1 mps 681 mmHg 83%
    04:00 +5°C° 0.4 mm 1 mps 682 mmHg 84%
    05:00 +5°C° 0.4 mm 1 mps 682 mmHg 86%
    06:00 +5°C° 0.4 mm 1 mps 683 mmHg 88%
    07:00 +5°C° 0.3 mm 1 mps 683 mmHg 87%
    08:00 +5°C° 0.3 mm 1 mps 684 mmHg 87%
    09:00 +6°C° 0 mm 1 mps 684 mmHg 87%
    10:00 +6°C° 0.1 mm 1 mps 685 mmHg 85%
    11:00 +6°C° 0.1 mm 1 mps 685 mmHg 84%
    12:00 +7°C° 0.1 mm 1 mps 686 mmHg 82%
    13:00 +7°C° 0 mm 1 mps 686 mmHg 81%
    14:00 +7°C° 0 mm 1 mps 686 mmHg 79%
    15:00 +7°C° 0 mm 1 mps 687 mmHg 78%
    16:00 +6°C° 0 mm 1 mps 687 mmHg 80%
    17:00 +5°C° 0 mm 1 mps 688 mmHg 82%
    18:00 +4°C° 0 mm 1 mps 688 mmHg 84%
    19:00 +4°C° 0 mm 1 mps 688 mmHg 83%
    20:00 +4°C° 0 mm 1 mps 689 mmHg 83%
    21:00 +4°C° 0 mm 1 mps 689 mmHg 83%
    22:00 +3°C° 0 mm 1 mps 689 mmHg 82%
    23:00 +3°C° 0 mm 1 mps 689 mmHg 81%

    Tomorrow, 21 January, Sunday

    Time Temperature Precipitation Wind Pressure Humidity
    00:00 +3°C° 0 mm 1 mps 689 mmHg 80%
    01:00 +2°C° 0 mm 1 mps 689 mmHg 80%
    02:00 +2°C° 0 mm 1 mps 689 mmHg 79%
    03:00 +2°C° 0 mm 1 mps 689 mmHg 78%
    04:00 +2°C° 0 mm 1 mps 689 mmHg 77%
    05:00 +2°C° 0 mm 1 mps 689 mmHg 76%
    06:00 +2°C° 0 mm 1 mps 689 mmHg 75%
    07:00 +3°C° 0 mm 1 mps 690 mmHg 72%
    08:00 +4°C° 0 mm 1 mps 690 mmHg 69%
    09:00 +5°C° 0 mm 1 mps 690 mmHg 67%
    10:00 +5°C° 0 mm 1 mps 689 mmHg 65%
    11:00 +6°C° 0 mm 1 mps 689 mmHg 63%
    12:00 +7°C° 0 mm 1 mps 689 mmHg 62%
    13:00 +8°C° 0 mm 1 mps 688 mmHg 60%
    14:00 +8°C° 0 mm 1 mps 688 mmHg 59%
    15:00 +8°C° 0 mm 1 mps 688 mmHg 58%
    16:00 +7°C° 0 mm 1 mps 688 mmHg 59%
    17:00 +6°C° 0 mm 1 mps 689 mmHg 60%
    18:00 +5°C° 0 mm 1 mps 689 mmHg 61%
    19:00 +4°C° 0 mm 1 mps 689 mmHg 59%
    20:00 +4°C° 0 mm 1 mps 689 mmHg 57%
    21:00 +4°C° 0 mm 1 mps 689 mmHg 55%
    22:00 +4°C° 0 mm 1 mps 689 mmHg 54%
    23:00 +4°C° 0 mm 1 mps 688 mmHg 53%

    Day after tomorrow, 22 January, Monday

    Time Temperature Precipitation Wind Pressure Humidity
    00:00 +3°C° 0 mm 1 mps 688 mmHg 52%
    01:00 +3°C° 0 mm 1 mps 688 mmHg 52%
    02:00 +3°C° 0 mm 1 mps 688 mmHg 51%
    03:00 +3°C° 0 mm 1 mps 687 mmHg 51%
    04:00 +3°C° 0 mm 1 mps 687 mmHg 51%
    05:00 +3°C° 0 mm 1 mps 686 mmHg 51%
    06:00 +4°C° 0 mm 1 mps 686 mmHg 50%
    07:00 +4°C° 0 mm 1 mps 686 mmHg 50%
    08:00 +4°C° 0 mm 2 mps 686 mmHg 49%
    09:00 +5°C° 0 mm 2 mps 686 mmHg 48%
    10:00 +6°C° 0 mm 2 mps 685 mmHg 49%
    11:00 +7°C° 0 mm 2 mps 685 mmHg 49%
    12:00 +8°C° 0 mm 2 mps 684 mmHg 50%
    13:00 +9°C° 0 mm 2 mps 684 mmHg 49%
    14:00 +9°C° 0 mm 2 mps 683 mmHg 49%
    15:00 +9°C° 0 mm 2 mps 683 mmHg 48%
    16:00 +8°C° 0 mm 2 mps 683 mmHg 49%
    17:00 +6°C° 0 mm 2 mps 683 mmHg 50%
    18:00 +5°C° 0 mm 2 mps 682 mmHg 51%
    19:00 +4°C° 0 mm 2 mps 683 mmHg 50%
    20:00 +4°C° 0 mm 2 mps 683 mmHg 48%
    21:00 +4°C° 0 mm 2 mps 683 mmHg 47%
    22:00 +3°C° 0 mm 2 mps 683 mmHg 46%
    23:00 +3°C° 0 mm 2 mps 682 mmHg 44%

    23 January, Tuesday

    Time Temperature Precipitation Wind Pressure Humidity
    00:00 +3°C° 0 mm 2 mps 682 mmHg 43%
    01:00 +3°C° 0 mm 2 mps 682 mmHg 43%
    02:00 +2°C° 0 mm 2 mps 682 mmHg 43%
    03:00 +2°C° 0 mm 2 mps 682 mmHg 43%
    04:00 +2°C° 0 mm 2 mps 682 mmHg 43%
    05:00 +2°C° 0 mm 2 mps 682 mmHg 44%
    06:00 +1°C° 0 mm 2 mps 682 mmHg 44%
    07:00 +2°C° 0 mm 2 mps 682 mmHg 43%
    08:00 +3°C° 0 mm 2 mps 683 mmHg 42%
    09:00 +4°C° 0 mm 2 mps 683 mmHg 41%
    10:00 +5°C° 0 mm 2 mps 682 mmHg 39%
    11:00 +7°C° 0 mm 2 mps 682 mmHg 38%
    12:00 +8°C° 0 mm 2 mps 681 mmHg 36%
    13:00 +8°C° 0 mm 2 mps 681 mmHg 38%
    14:00 +8°C° 0 mm 2 mps 680 mmHg 39%
    15:00 +8°C° 0 mm 2 mps 680 mmHg 41%
    16:00 +7°C° 0 mm 2 mps 680 mmHg 44%
    17:00 +6°C° 0 mm 2 mps 680 mmHg 46%
    18:00 +5°C° 0 mm 2 mps 680 mmHg 49%
    19:00 +5°C° 0 mm 2 mps 680 mmHg 49%
    20:00 +6°C° 0 mm 1 mps 680 mmHg 49%
    21:00 +6°C° 0 mm 1 mps 681 mmHg 49%
    22:00 +6°C° 0 mm 1 mps 681 mmHg 50%
    23:00 +6°C° 0 mm 1 mps 680 mmHg 51%

    24 January, Wednesday

    Time Temperature Precipitation Wind Pressure Humidity
    00:00 +6°C° 0 mm 1 mps 680 mmHg 52%
    01:00 +5°C° 0 mm 1 mps 680 mmHg 54%
    02:00 +5°C° 0 mm 1 mps 680 mmHg 56%
    03:00 +5°C° 0 mm 1 mps 680 mmHg 57%
    04:00 +4°C° 0 mm 1 mps 680 mmHg 59%
    05:00 +4°C° 0 mm 1 mps 681 mmHg 60%
    06:00 +3°C° 0 mm 1 mps 681 mmHg 62%
    07:00 +4°C° 0 mm 1 mps 681 mmHg 60%
    08:00 +5°C° 0 mm 1 mps 682 mmHg 58%
    09:00 +6°C° 0 mm 1 mps 683 mmHg 55%
    10:00 +6°C° 0 mm 1 mps 683 mmHg 54%
    11:00 +7°C° 0 mm 1 mps 683 mmHg 53%
    12:00 +8°C° 0 mm 1 mps 683 mmHg 52%
    13:00 +8°C° 0 mm 1 mps 683 mmHg 53%
    14:00 +8°C° 0 mm 1 mps 683 mmHg 53%
    15:00 +8°C° 0 mm 1 mps 683 mmHg 53%
    16:00 +7°C° 0 mm 1 mps 683 mmHg 56%
    17:00 +6°C° 0 mm 1 mps 684 mmHg 59%
    18:00 +5°C° 0 mm 1 mps 684 mmHg 62%
    19:00 +5°C° 0 mm 1 mps 685 mmHg 62%
    20:00 +4°C° 0 mm 1 mps 685 mmHg 62%
    21:00 +4°C° 0 mm 1 mps 686 mmHg 62%
    22:00 +4°C° 0 mm 1 mps 686 mmHg 63%
    23:00 +3°C° 0 mm 1 mps 686 mmHg 64%

    25 January, Thursday

    Time Temperature Precipitation Wind Pressure Humidity
    00:00 +3°C° 0 mm 1 mps 686 mmHg 65%
    01:00 +3°C° 0 mm 1 mps 686 mmHg 65%
    02:00 +2°C° 0 mm 1 mps 687 mmHg 65%
    03:00 +2°C° 0 mm 1 mps 687 mmHg 66%
    04:00 +2°C° 0 mm 1 mps 687 mmHg 66%
    05:00 +2°C° 0 mm 1 mps 687 mmHg 66%
    06:00 +2°C° 0 mm 1 mps 688 mmHg 66%
    07:00 +2°C° 0 mm 1 mps 688 mmHg 63%
    08:00 +3°C° 0 mm 1 mps 689 mmHg 60%
    09:00 +4°C° 0 mm 1 mps 689 mmHg 57%
    10:00 +5°C° 0 mm 1 mps 689 mmHg 56%
    11:00 +6°C° 0 mm 1 mps 689 mmHg 55%
    12:00 +7°C° 0 mm 1 mps 688 mmHg 53%
    13:00 +7°C° 0 mm 1 mps 688 mmHg 53%
    14:00 +7°C° 0 mm 1 mps 688 mmHg 53%
    15:00 +7°C° 0 mm 1 mps 688 mmHg 53%
    16:00 +7°C° 0 mm 1 mps 688 mmHg 56%
    17:00 +6°C° 0 mm 1 mps 689 mmHg 58%
    18:00 +5°C° 0 mm 1 mps 689 mmHg 61%
    19:00 +5°C° 0 mm 1 mps 689 mmHg 63%
    20:00 +5°C° 0 mm 1 mps 689 mmHg 64%
    21:00 +4°C° 0 mm 1 mps 690 mmHg 65%
    22:00 +4°C° 0.1 mm 1 mps 690 mmHg 66%
    23:00 +4°C° 0.1 mm 1 mps 690 mmHg 67%
    Show more